Time,TemperatureF,DewpointF,PressureIn,WindDirection,WindDirectionDegrees,WindSpeedMPH,WindSpeedGustMPH,Humidity,HourlyPrecipIn,Conditions,Clouds,dailyrainin,SoftwareType,DateUTC
2013-12-04 00:05:00,38.0,37.0,29.93,WNW,294,0.0,0.0,96,0.00,,,0.00,Wunderground v.1.15,2013-12-04 05:05:00,
2013-12-04 00:10:00,38.3,37.3,29.93,WNW,294,0.0,0.0,96,0.00,,,0.00,Wunderground v.1.15,2013-12-04 05:10:00,
2013-12-04 00:15:00,38.3,37.0,29.93,WNW,294,0.0,0.0,95,0.00,,,0.00,Wunderground v.1.15,2013-12-04 05:15:00,
2013-12-04 00:20:00,38.2,37.2,29.93,WNW,294,0.0,1.0,96,0.00,,,0.00,Wunderground v.1.15,2013-12-04 05:20:00,
2013-12-04 00:25:00,38.2,37.2,29.93,WNW,294,0.0,1.0,96,0.00,,,0.00,Wunderground v.1.15,2013-12-04 05:25:00,
2013-12-04 00:30:00,38.2,37.4,29.93,WNW,294,0.0,0.0,97,0.00,,,0.00,Wunderground v.1.15,2013-12-04 05:30:00,
2013-12-04 00:35:00,38.2,36.9,29.93,WNW,294,0.0,0.0,95,0.00,,,0.00,Wunderground v.1.15,2013-12-04 05:35:00,
2013-12-04 00:40:00,37.9,36.9,29.93,WNW,294,0.0,0.0,96,0.00,,,0.00,Wunderground v.1.15,2013-12-04 05:40:00,
2013-12-04 00:45:00,37.9,37.1,29.94,WNW,294,0.0,0.0,97,0.00,,,0.00,Wunderground v.1.15,2013-12-04 05:45:00,
2013-12-04 00:55:00,38.0,37.2,29.94,WNW,294,0.0,0.0,97,0.00,,,0.00,Wunderground v.1.15,2013-12-04 05:55:00,
2013-12-04 01:00:00,37.9,36.9,29.95,WNW,294,0.0,0.0,96,0.00,,,0.00,Wunderground v.1.15,2013-12-04 06:00:00,
2013-12-04 01:10:00,37.5,36.5,29.96,WNW,294,0.0,0.0,96,0.00,,,0.00,Wunderground v.1.15,2013-12-04 06:10:00,
2013-12-04 01:20:00,37.3,36.3,29.96,WNW,294,0.0,0.0,96,0.00,,,0.00,Wunderground v.1.15,2013-12-04 06:20:00,
2013-12-04 01:30:00,37.6,36.8,29.96,WNW,294,0.0,0.0,97,0.00,,,0.00,Wunderground v.1.15,2013-12-04 06:30:00,
2013-12-04 01:40:00,38.0,37.5,29.96,WNW,294,0.0,0.0,98,0.00,,,0.00,Wunderground v.1.15,2013-12-04 06:40:00,
2013-12-04 01:50:00,38.3,37.5,29.97,WNW,294,0.0,0.0,97,0.00,,,0.00,Wunderground v.1.15,2013-12-04 06:50:00,
2013-12-04 01:55:00,38.3,37.5,29.97,WNW,294,0.0,0.0,97,0.00,,,0.00,Wunderground v.1.15,2013-12-04 06:55:00,
2013-12-04 02:05:00,38.0,37.2,29.96,WNW,294,0.0,0.0,97,0.00,,,0.00,Wunderground v.1.15,2013-12-04 07:05:00,
2013-12-04 02:10:00,38.0,37.2,29.97,WNW,294,0.0,0.0,97,0.00,,,0.00,Wunderground v.1.15,2013-12-04 07:10:00,
2013-12-04 02:15:00,38.0,37.2,29.97,WNW,294,0.0,0.0,97,0.00,,,0.00,Wunderground v.1.15,2013-12-04 07:15:00,
2013-12-04 02:20:00,37.9,37.1,29.97,WNW,294,0.0,0.0,97,0.00,,,0.00,Wunderground v.1.15,2013-12-04 07:20:00,
2013-12-04 02:30:00,38.0,37.5,29.98,WNW,294,0.0,0.0,98,0.00,,,0.00,Wunderground v.1.15,2013-12-04 07:30:00,
2013-12-04 02:40:00,38.3,37.8,29.97,WNW,294,0.0,0.0,98,0.00,,,0.00,Wunderground v.1.15,2013-12-04 07:40:00,
2013-12-04 02:50:00,38.3,37.8,29.98,WNW,294,0.0,0.0,98,0.00,,,0.00,Wunderground v.1.15,2013-12-04 07:50:00,
2013-12-04 03:00:00,37.8,37.0,29.97,WNW,294,0.0,0.0,97,0.00,,,0.00,Wunderground v.1.15,2013-12-04 08:00:00,
2013-12-04 03:10:00,37.5,36.7,29.96,WNW,294,0.0,0.0,97,0.00,,,0.00,Wunderground v.1.15,2013-12-04 08:10:00,
2013-12-04 03:15:00,37.5,37.0,29.97,WNW,294,0.0,0.0,98,0.00,,,0.00,Wunderground v.1.15,2013-12-04 08:15:00,
2013-12-04 03:25:00,37.3,36.5,29.97,WNW,294,0.0,0.0,97,0.00,,,0.00,Wunderground v.1.15,2013-12-04 08:25:00,
2013-12-04 03:35:00,36.6,35.8,29.97,WNW,294,0.0,0.0,97,0.00,,,0.00,Wunderground v.1.15,2013-12-04 08:35:00,
2013-12-04 03:40:00,36.3,35.5,29.97,WNW,294,0.0,0.0,97,0.00,,,0.00,Wunderground v.1.15,2013-12-04 08:40:00,
2013-12-04 03:50:00,36.3,35.8,29.96,WNW,294,0.0,0.0,98,0.00,,,0.00,Wunderground v.1.15,2013-12-04 08:50:00,
2013-12-04 04:00:00,36.3,35.8,29.96,WNW,294,0.0,0.0,98,0.00,,,0.00,Wunderground v.1.15,2013-12-04 09:00:00,
2013-12-04 04:10:00,36.2,35.7,29.96,WNW,294,1.0,1.0,98,0.00,,,0.00,Wunderground v.1.15,2013-12-04 09:10:00,
2013-12-04 04:20:00,36.6,36.3,29.96,WNW,294,0.0,0.0,99,0.00,,,0.00,Wunderground v.1.15,2013-12-04 09:20:00,
2013-12-04 04:30:00,37.0,36.7,29.96,WNW,294,0.0,0.0,99,0.00,,,0.00,Wunderground v.1.15,2013-12-04 09:30:00,
2013-12-04 04:40:00,37.6,37.3,29.96,WNW,294,0.0,0.0,99,0.00,,,0.00,Wunderground v.1.15,2013-12-04 09:40:00,
2013-12-04 04:45:00,37.5,37.0,29.96,WNW,294,0.0,0.0,98,0.00,,,0.00,Wunderground v.1.15,2013-12-04 09:45:00,
2013-12-04 04:55:00,37.2,36.7,29.96,WNW,294,0.0,0.0,98,0.00,,,0.00,Wunderground v.1.15,2013-12-04 09:55:00,
2013-12-04 05:00:00,37.0,36.7,29.96,WNW,294,0.0,0.0,99,0.00,,,0.00,Wunderground v.1.15,2013-12-04 10:00:00,
2013-12-04 05:10:00,36.5,36.0,29.97,WNW,294,0.0,0.0,98,0.00,,,0.00,Wunderground v.1.15,2013-12-04 10:10:00,
2013-12-04 05:15:00,36.3,35.8,29.98,WNW,294,0.0,0.0,98,0.00,,,0.00,Wunderground v.1.15,2013-12-04 10:15:00,
2013-12-04 05:20:00,36.8,36.5,29.98,WNW,294,0.0,0.0,99,0.00,,,0.00,Wunderground v.1.15,2013-12-04 10:20:00,
2013-12-04 05:30:00,37.2,36.9,29.98,WNW,294,0.0,0.0,99,0.00,,,0.00,Wunderground v.1.15,2013-12-04 10:30:00,
2013-12-04 05:35:00,37.9,37.9,29.98,WNW,294,0.0,0.0,100,0.00,,,0.00,Wunderground v.1.15,2013-12-04 10:35:00,
2013-12-04 05:45:00,38.2,37.9,29.99,WNW,294,0.0,0.0,99,0.00,,,0.00,Wunderground v.1.15,2013-12-04 10:45:00,
2013-12-04 05:50:00,38.2,37.9,29.99,WNW,294,0.0,0.0,99,0.00,,,0.00,Wunderground v.1.15,2013-12-04 10:50:00,
2013-12-04 05:55:00,38.3,38.0,29.99,WNW,294,0.0,0.0,99,0.00,,,0.00,Wunderground v.1.15,2013-12-04 10:55:00,
2013-12-04 06:00:00,38.9,38.6,29.99,WNW,294,0.0,0.0,99,0.00,,,0.00,Wunderground v.1.15,2013-12-04 11:00:00,
2013-12-04 06:10:00,39.3,39.0,30.00,WNW,294,0.0,0.0,99,0.00,,,0.00,Wunderground v.1.15,2013-12-04 11:10:00,
2013-12-04 06:20:00,39.3,39.0,30.00,WNW,294,0.0,0.0,99,0.00,,,0.00,Wunderground v.1.15,2013-12-04 11:20:00,
2013-12-04 06:25:00,39.3,39.0,30.00,WNW,294,0.0,0.0,99,0.00,,,0.00,Wunderground v.1.15,2013-12-04 11:25:00,
2013-12-04 06:30:00,39.3,39.0,30.00,WNW,294,0.0,0.0,99,0.00,,,0.00,Wunderground v.1.15,2013-12-04 11:30:00,
2013-12-04 06:35:00,39.5,39.2,30.00,WNW,294,0.0,0.0,99,0.00,,,0.00,Wunderground v.1.15,2013-12-04 11:35:00,
2013-12-04 06:45:00,39.3,39.0,30.00,WNW,294,0.0,0.0,99,0.00,,,0.00,Wunderground v.1.15,2013-12-04 11:45:00,
2013-12-04 06:55:00,39.8,39.5,30.00,WNW,294,0.0,2.0,99,0.00,,,0.00,Wunderground v.1.15,2013-12-04 11:55:00,
2013-12-04 07:00:00,39.9,39.6,30.00,WNW,294,1.0,2.0,99,0.00,,,0.00,Wunderground v.1.15,2013-12-04 12:00:00,
2013-12-04 07:10:00,40.2,40.2,30.00,WNW,294,1.0,3.0,100,0.00,,,0.00,Wunderground v.1.15,2013-12-04 12:10:00,
2013-12-04 07:20:00,41.1,40.8,30.00,WNW,294,2.0,2.0,99,0.00,,,0.00,Wunderground v.1.15,2013-12-04 12:20:00,
2013-12-04 07:30:00,41.3,41.3,30.00,WNW,296,2.0,3.0,100,0.00,,,0.00,Wunderground v.1.15,2013-12-04 12:30:00,
2013-12-04 07:35:00,41.8,41.8,30.00,WNW,296,2.0,3.0,100,0.00,,,0.00,Wunderground v.1.15,2013-12-04 12:35:00,
2013-12-04 07:40:00,42.1,42.1,30.00,WNW,296,1.0,1.0,100,0.00,,,0.00,Wunderground v.1.15,2013-12-04 12:40:00,
2013-12-04 07:50:00,42.2,41.9,30.00,WNW,296,2.0,3.0,99,0.00,,,0.00,Wunderground v.1.15,2013-12-04 12:50:00,
2013-12-04 08:00:00,42.6,42.6,30.00,WNW,302,2.0,2.0,100,0.00,,,0.00,Wunderground v.1.15,2013-12-04 13:00:00,
2013-12-04 08:10:00,43.1,43.1,30.01,WNW,302,1.0,3.0,100,0.00,,,0.00,Wunderground v.1.15,2013-12-04 13:10:00,
2013-12-04 08:20:00,43.3,43.3,30.01,WNW,302,1.0,2.0,100,0.00,,,0.00,Wunderground v.1.15,2013-12-04 13:20:00,
2013-12-04 08:30:00,43.6,43.6,30.01,WNW,302,0.0,0.0,100,0.00,,,0.00,Wunderground v.1.15,2013-12-04 13:30:00,
2013-12-04 08:40:00,44.1,44.1,30.01,WNW,303,1.0,4.0,100,0.00,,,0.00,Wunderground v.1.15,2013-12-04 13:40:00,
2013-12-04 08:50:00,45.1,45.1,30.02,NW,307,2.0,4.0,100,0.00,,,0.00,Wunderground v.1.15,2013-12-04 13:50:00,
2013-12-04 09:00:00,45.8,45.8,30.02,NW,321,3.0,4.0,100,0.00,,,0.00,Wunderground v.1.15,2013-12-04 14:00:00,
2013-12-04 09:10:00,46.5,46.2,30.03,NW,326,3.0,3.0,99,0.00,,,0.00,Wunderground v.1.15,2013-12-04 14:10:00,
2013-12-04 09:20:00,46.7,46.2,30.03,NNW,327,1.0,3.0,98,0.00,,,0.00,Wunderground v.1.15,2013-12-04 14:20:00,
2013-12-04 09:30:00,47.3,46.5,30.03,NNW,327,1.0,1.0,97,0.00,,,0.00,Wunderground v.1.15,2013-12-04 14:30:00,
2013-12-04 09:40:00,47.7,46.6,30.04,NNW,327,2.0,2.0,96,0.00,,,0.00,Wunderground v.1.15,2013-12-04 14:40:00,
2013-12-04 09:50:00,48.2,47.1,30.04,NNW,327,2.0,3.0,96,0.00,,,0.00,Wunderground v.1.15,2013-12-04 14:50:00,
2013-12-04 10:00:00,48.6,47.2,30.05,NNW,327,2.0,2.0,95,0.00,,,0.00,Wunderground v.1.15,2013-12-04 15:00:00,
2013-12-04 10:05:00,48.9,47.2,30.05,NNW,327,1.0,4.0,94,0.00,,,0.00,Wunderground v.1.15,2013-12-04 15:05:00,
2013-12-04 10:10:00,49.5,48.1,30.05,NNW,327,2.0,3.0,95,0.00,,,0.00,Wunderground v.1.15,2013-12-04 15:10:00,
2013-12-04 10:20:00,50.8,48.6,30.05,NNW,327,1.0,1.0,92,0.00,,,0.00,Wunderground v.1.15,2013-12-04 15:20:00,
2013-12-04 10:30:00,51.6,48.8,30.05,NNW,327,1.0,1.0,90,0.00,,,0.00,Wunderground v.1.15,2013-12-04 15:30:00,
2013-12-04 10:40:00,52.6,49.1,30.05,NNW,327,2.0,3.0,88,0.00,,,0.00,Wunderground v.1.15,2013-12-04 15:40:00,
2013-12-04 10:50:00,53.5,49.4,30.05,NNW,327,2.0,3.0,86,0.00,,,0.00,Wunderground v.1.15,2013-12-04 15:50:00,
2013-12-04 11:00:00,54.1,49.4,30.04,NNW,327,2.0,5.0,84,0.00,,,0.00,Wunderground v.1.15,2013-12-04 16:00:00,
2013-12-04 11:05:00,54.4,49.7,30.03,NNW,327,2.0,5.0,84,0.00,,,0.00,Wunderground v.1.15,2013-12-04 16:05:00,
2013-12-04 11:10:00,54.8,50.1,30.03,NNW,327,2.0,3.0,84,0.00,,,0.00,Wunderground v.1.15,2013-12-04 16:10:00,
2013-12-04 11:15:00,55.3,49.9,30.03,NNW,329,2.0,3.0,82,0.00,,,0.00,Wunderground v.1.15,2013-12-04 16:15:00,
2013-12-04 11:25:00,55.9,49.5,30.02,NNW,332,3.0,4.0,79,0.00,,,0.00,Wunderground v.1.15,2013-12-04 16:25:00,
2013-12-04 11:35:00,56.7,49.9,30.01,NNW,337,4.0,4.0,78,0.00,,,0.00,Wunderground v.1.15,2013-12-04 16:35:00,
2013-12-04 11:45:00,57.5,50.3,30.01,NNW,337,1.0,3.0,77,0.00,,,0.00,Wunderground v.1.15,2013-12-04 16:45:00,
2013-12-04 11:55:00,58.1,50.6,30.00,NNW,337,0.0,4.0,76,0.00,,,0.00,Wunderground v.1.15,2013-12-04 16:55:00,
2013-12-04 12:05:00,58.7,50.8,30.00,NNW,337,0.0,0.0,75,0.00,,,0.00,Wunderground v.1.15,2013-12-04 17:05:00,
2013-12-04 12:15:00,59.3,50.6,30.00,NNW,337,0.0,0.0,73,0.00,,,0.00,Wunderground v.1.15,2013-12-04 17:15:00,
2013-12-04 12:20:00,59.5,50.8,29.99,NNW,337,0.0,0.0,73,0.00,,,0.00,Wunderground v.1.15,2013-12-04 17:20:00,
2013-12-04 12:30:00,60.4,52.1,29.99,NNW,337,0.0,0.0,74,0.00,,,0.00,Wunderground v.1.15,2013-12-04 17:30:00,
2013-12-04 12:40:00,60.7,51.2,29.98,NNW,337,0.0,0.0,71,0.00,,,0.00,Wunderground v.1.15,2013-12-04 17:40:00,
2013-12-04 12:50:00,61.8,51.5,29.98,NNW,336,0.0,0.0,69,0.00,,,0.00,Wunderground v.1.15,2013-12-04 17:50:00,
2013-12-04 13:00:00,61.8,51.1,29.97,NNW,333,0.0,0.0,68,0.00,,,0.00,Wunderground v.1.15,2013-12-04 18:00:00,
2013-12-04 13:10:00,62.6,51.5,29.97,NNW,333,0.0,0.0,67,0.00,,,0.00,Wunderground v.1.15,2013-12-04 18:10:00,
2013-12-04 13:20:00,63.7,51.7,29.96,NW,319,0.0,0.0,65,0.00,,,0.00,Wunderground v.1.15,2013-12-04 18:20:00,
2013-12-04 13:30:00,64.5,51.6,29.95,NW,319,0.0,0.0,63,0.00,,,0.00,Wunderground v.1.15,2013-12-04 18:30:00,
2013-12-04 13:40:00,65.2,51.8,29.95,South,186,0.0,2.0,62,0.00,,,0.00,Wunderground v.1.15,2013-12-04 18:40:00,
2013-12-04 13:45:00,65.0,51.7,29.95,South,185,1.0,2.0,62,0.00,,,0.00,Wunderground v.1.15,2013-12-04 18:45:00,
2013-12-04 13:50:00,65.0,50.8,29.95,South,185,1.0,1.0,60,0.00,,,0.00,Wunderground v.1.15,2013-12-04 18:50:00,
2013-12-04 14:00:00,64.8,51.0,29.95,SSW,202,2.0,3.0,61,0.00,,,0.00,Wunderground v.1.15,2013-12-04 19:00:00,
2013-12-04 14:05:00,64.8,50.6,29.95,SSW,202,2.0,3.0,60,0.00,,,0.00,Wunderground v.1.15,2013-12-04 19:05:00,
2013-12-04 14:15:00,65.6,50.4,29.94,SSW,197,2.0,2.0,58,0.00,,,0.00,Wunderground v.1.15,2013-12-04 19:15:00,
2013-12-04 14:20:00,66.1,50.9,29.94,South,184,3.0,3.0,58,0.00,,,0.00,Wunderground v.1.15,2013-12-04 19:20:00,
2013-12-04 14:25:00,66.1,50.4,29.94,South,175,3.0,3.0,57,0.00,,,0.00,Wunderground v.1.15,2013-12-04 19:25:00,
2013-12-04 14:35:00,66.8,51.1,29.94,SSW,192,1.0,5.0,57,0.00,,,0.00,Wunderground v.1.15,2013-12-04 19:35:00,
2013-12-04 14:40:00,66.8,50.6,29.93,South,185,2.0,3.0,56,0.00,,,0.00,Wunderground v.1.15,2013-12-04 19:40:00,
2013-12-04 14:45:00,67.3,51.1,29.93,South,169,2.0,3.0,56,0.00,,,0.00,Wunderground v.1.15,2013-12-04 19:45:00,
2013-12-04 14:55:00,66.0,50.3,29.93,South,175,2.0,2.0,57,0.00,,,0.00,Wunderground v.1.15,2013-12-04 19:55:00,
2013-12-04 15:00:00,66.1,50.4,29.93,SSE,165,0.0,2.0,57,0.00,,,0.00,Wunderground v.1.15,2013-12-04 20:00:00,
2013-12-04 15:10:00,66.0,50.8,29.93,SSE,165,0.0,0.0,58,0.00,,,0.00,Wunderground v.1.15,2013-12-04 20:10:00,
2013-12-04 15:20:00,65.2,50.0,29.94,SSE,165,0.0,0.0,58,0.00,,,0.00,Wunderground v.1.15,2013-12-04 20:20:00,
2013-12-04 15:30:00,65.2,51.0,29.94,SSE,165,0.0,0.0,60,0.00,,,0.00,Wunderground v.1.15,2013-12-04 20:30:00,
2013-12-04 15:35:00,65.5,51.2,29.94,SSE,165,0.0,0.0,60,0.00,,,0.00,Wunderground v.1.15,2013-12-04 20:35:00,
2013-12-04 15:40:00,65.5,51.2,29.94,SSE,165,0.0,0.0,60,0.00,,,0.00,Wunderground v.1.15,2013-12-04 20:40:00,
2013-12-04 15:50:00,65.6,51.8,29.94,SSE,165,0.0,0.0,61,0.00,,,0.00,Wunderground v.1.15,2013-12-04 20:50:00,
2013-12-04 16:00:00,66.3,50.6,29.94,SSE,165,0.0,0.0,57,0.00,,,0.00,Wunderground v.1.15,2013-12-04 21:00:00,
2013-12-04 16:10:00,66.8,50.1,29.94,SSE,165,0.0,2.0,55,0.00,,,0.00,Wunderground v.1.15,2013-12-04 21:10:00,
2013-12-04 16:20:00,65.8,51.5,29.94,SSE,164,0.0,0.0,60,0.00,,,0.00,Wunderground v.1.15,2013-12-04 21:20:00,
2013-12-04 16:25:00,65.0,51.2,29.94,SSE,164,0.0,0.0,61,0.00,,,0.00,Wunderground v.1.15,2013-12-04 21:25:00,
2013-12-04 16:30:00,64.3,51.0,29.94,SSE,164,0.0,0.0,62,0.00,,,0.00,Wunderground v.1.15,2013-12-04 21:30:00,
2013-12-04 16:40:00,63.2,50.8,29.94,SSE,165,0.0,0.0,64,0.00,,,0.00,Wunderground v.1.15,2013-12-04 21:40:00,
2013-12-04 16:50:00,62.4,50.5,29.94,SSE,164,0.0,0.0,65,0.00,,,0.00,Wunderground v.1.15,2013-12-04 21:50:00,
2013-12-04 17:00:00,61.6,50.5,29.95,SSE,164,0.0,0.0,67,0.00,,,0.00,Wunderground v.1.15,2013-12-04 22:00:00,
2013-12-04 17:10:00,60.5,49.9,29.94,SSE,164,0.0,0.0,68,0.00,,,0.00,Wunderground v.1.15,2013-12-04 22:10:00,
2013-12-04 17:20:00,59.3,49.5,29.94,SSE,164,0.0,0.0,70,0.00,,,0.00,Wunderground v.1.15,2013-12-04 22:20:00,
2013-12-04 17:30:00,58.0,49.0,29.95,SSE,164,0.0,0.0,72,0.00,,,0.00,Wunderground v.1.15,2013-12-04 22:30:00,
2013-12-04 17:40:00,56.9,49.1,29.95,SSE,165,0.0,0.0,75,0.00,,,0.00,Wunderground v.1.15,2013-12-04 22:40:00,
2013-12-04 17:50:00,56.0,48.5,29.95,SSE,164,0.0,0.0,76,0.00,,,0.00,Wunderground v.1.15,2013-12-04 22:50:00,
2013-12-04 18:00:00,55.4,49.0,29.96,SSE,164,0.0,4.0,79,0.00,,,0.00,Wunderground v.1.15,2013-12-04 23:00:00,
2013-12-04 18:05:00,55.4,49.0,29.96,ESE,105,2.0,4.0,79,0.00,,,0.00,Wunderground v.1.15,2013-12-04 23:05:00,
2013-12-04 18:15:00,55.3,48.9,29.96,ESE,105,0.0,2.0,79,0.00,,,0.00,Wunderground v.1.15,2013-12-04 23:15:00,
2013-12-04 18:25:00,54.7,48.6,29.96,ESE,105,0.0,0.0,80,0.00,,,0.00,Wunderground v.1.15,2013-12-04 23:25:00,
2013-12-04 18:35:00,54.2,48.5,29.97,ESE,105,1.0,3.0,81,0.00,,,0.00,Wunderground v.1.15,2013-12-04 23:35:00,
2013-12-04 18:45:00,53.9,48.5,29.97,ESE,105,0.0,1.0,82,0.00,,,0.00,Wunderground v.1.15,2013-12-04 23:45:00,
2013-12-04 18:55:00,53.5,48.5,29.97,ESE,105,0.0,0.0,83,0.00,,,0.00,Wunderground v.1.15,2013-12-04 23:55:00,
2013-12-04 19:05:00,53.2,48.2,29.97,ESE,105,0.0,0.0,83,0.00,,,0.00,Wunderground v.1.15,2013-12-05 00:05:00,
2013-12-04 19:15:00,52.5,47.5,29.97,ESE,105,0.0,0.0,83,0.00,,,0.00,Wunderground v.1.15,2013-12-05 00:15:00,
2013-12-04 19:20:00,51.9,46.9,29.98,ESE,105,0.0,0.0,83,0.00,,,0.00,Wunderground v.1.15,2013-12-05 00:20:00,
2013-12-04 19:25:00,51.1,46.4,29.98,ESE,105,0.0,0.0,84,0.00,,,0.00,Wunderground v.1.15,2013-12-05 00:25:00,
2013-12-04 19:30:00,50.7,46.4,29.98,ESE,105,0.0,0.0,85,0.00,,,0.00,Wunderground v.1.15,2013-12-05 00:30:00,
2013-12-04 19:35:00,50.4,46.4,29.98,ESE,105,0.0,0.0,86,0.00,,,0.00,Wunderground v.1.15,2013-12-05 00:35:00,
2013-12-04 19:45:00,49.9,46.2,29.98,ESE,105,0.0,0.0,87,0.00,,,0.00,Wunderground v.1.15,2013-12-05 00:45:00,
2013-12-04 19:50:00,49.9,46.2,29.98,ESE,105,0.0,0.0,87,0.00,,,0.00,Wunderground v.1.15,2013-12-05 00:50:00,
2013-12-04 19:55:00,49.8,46.1,29.98,ESE,105,0.0,0.0,87,0.00,,,0.00,Wunderground v.1.15,2013-12-05 00:55:00,
2013-12-04 20:00:00,49.4,45.7,29.98,ESE,105,0.0,0.0,87,0.00,,,0.00,Wunderground v.1.15,2013-12-05 01:00:00,
2013-12-04 20:10:00,48.6,45.2,29.99,ESE,105,0.0,0.0,88,0.00,,,0.00,Wunderground v.1.15,2013-12-05 01:10:00,
2013-12-04 20:15:00,48.3,45.5,29.99,ESE,105,0.0,0.0,90,0.00,,,0.00,Wunderground v.1.15,2013-12-05 01:15:00,
2013-12-04 20:25:00,48.0,44.9,29.99,ESE,105,0.0,0.0,89,0.00,,,0.00,Wunderground v.1.15,2013-12-05 01:25:00,
2013-12-04 20:30:00,47.6,44.8,29.99,ESE,105,0.0,0.0,90,0.00,,,0.00,Wunderground v.1.15,2013-12-05 01:30:00,
2013-12-04 20:40:00,47.1,44.3,30.00,ESE,105,0.0,0.0,90,0.00,,,0.00,Wunderground v.1.15,2013-12-05 01:40:00,
2013-12-04 20:50:00,46.4,43.9,30.00,ESE,105,0.0,0.0,91,0.00,,,0.00,Wunderground v.1.15,2013-12-05 01:50:00,
2013-12-04 21:00:00,45.8,43.3,30.00,ESE,105,0.0,0.0,91,0.00,,,0.00,Wunderground v.1.15,2013-12-05 02:00:00,
2013-12-04 21:10:00,45.2,43.3,30.01,ESE,105,0.0,0.0,93,0.00,,,0.00,Wunderground v.1.15,2013-12-05 02:10:00,
2013-12-04 21:15:00,45.1,43.2,30.00,ESE,105,0.0,0.0,93,0.00,,,0.00,Wunderground v.1.15,2013-12-05 02:15:00,
2013-12-04 21:20:00,44.8,42.9,30.01,ESE,105,0.0,0.0,93,0.00,,,0.00,Wunderground v.1.15,2013-12-05 02:20:00,
2013-12-04 21:30:00,44.5,42.6,30.01,ESE,105,0.0,0.0,93,0.00,,,0.00,Wunderground v.1.15,2013-12-05 02:30:00,
2013-12-04 21:40:00,44.3,42.7,30.01,ESE,105,0.0,0.0,94,0.00,,,0.00,Wunderground v.1.15,2013-12-05 02:40:00,
2013-12-04 21:50:00,43.8,42.2,30.01,ESE,105,0.0,0.0,94,0.00,,,0.00,Wunderground v.1.15,2013-12-05 02:50:00,
2013-12-04 22:00:00,43.3,41.7,30.01,ESE,105,0.0,0.0,94,0.00,,,0.00,Wunderground v.1.15,2013-12-05 03:00:00,
2013-12-04 22:10:00,43.3,42.0,30.01,ESE,105,0.0,0.0,95,0.00,,,0.00,Wunderground v.1.15,2013-12-05 03:10:00,
2013-12-04 22:20:00,43.2,41.9,30.02,ESE,105,0.0,0.0,95,0.00,,,0.00,Wunderground v.1.15,2013-12-05 03:20:00,
2013-12-04 22:30:00,43.3,42.0,30.02,ESE,105,0.0,0.0,95,0.00,,,0.00,Wunderground v.1.15,2013-12-05 03:30:00,
2013-12-04 22:40:00,42.8,41.5,30.03,ESE,105,0.0,0.0,95,0.00,,,0.00,Wunderground v.1.15,2013-12-05 03:40:00,
2013-12-04 22:50:00,42.8,41.7,30.03,ESE,105,0.0,0.0,96,0.00,,,0.00,Wunderground v.1.15,2013-12-05 03:50:00,
2013-12-04 23:00:00,43.5,42.7,30.03,ESE,105,0.0,0.0,97,0.00,,,0.00,Wunderground v.1.15,2013-12-05 04:00:00,
2013-12-04 23:10:00,44.2,43.4,30.04,ESE,105,0.0,0.0,97,0.00,,,0.00,Wunderground v.1.15,2013-12-05 04:10:00,
2013-12-04 23:20:00,44.5,43.7,30.04,ESE,105,0.0,0.0,97,0.00,,,0.00,Wunderground v.1.15,2013-12-05 04:20:00,
2013-12-04 23:30:00,45.2,44.7,30.04,ESE,105,0.0,0.0,98,0.00,,,0.00,Wunderground v.1.15,2013-12-05 04:30:00,
2013-12-04 23:35:00,45.2,44.4,30.04,ESE,105,0.0,0.0,97,0.00,,,0.00,Wunderground v.1.15,2013-12-05 04:35:00,
2013-12-04 23:45:00,44.8,44.0,30.04,ESE,105,0.0,0.0,97,0.00,,,0.00,Wunderground v.1.15,2013-12-05 04:45:00,
2013-12-04 23:50:00,44.9,44.1,30.04,ESE,105,0.0,0.0,97,0.00,,,0.00,Wunderground v.1.15,2013-12-05 04:50:00,